Location: Eexterzandvoort
(53.0303°N, 6.7884°E)
Time: 10:40:54
(UTC+00:00)

Cosmos 1980 Rocket - Pass Details

Date: 19 May 2025
Orbit: 829 x 848 km, 71.0° (Epoch: 23 June)

Event Time Altitude Azimuth Distance (km) Brightness Sun altitude
Rises 22:28:54 0° 322° (NW) 3,384 6.6 -15.8°
Reaches altitude 10° 22:31:42 10° 310° (NW) 2,446 5.4 -15.9°
Maximum altitude 22:36:11 25° 256° (WSW) 1,610 3.6 -16.1°
Enters shadow 22:39:29 15° 211° (SSW) 2,102 3.8 -16.2°
